| time (UTC) | temp F | wind direction | speed MPH | gust MPH | rain 1hr in | rain 24hr in | rain mn in | humidity % | barometer mb |
| 20260902211601 | 76 | 209 | 0.0 | 1.0 | 0.00 | 0.00 | 0.00 | 33 | 1032.1 |
| 20260902210059 | 77 | 209 | 0.0 | 0.0 | 0.00 | 0.00 | 0.00 | 32 | 1032.3 |
| 20260902204556 | 77 | 209 | 0.0 | 0.0 | 0.00 | 0.00 | 0.00 | 31 | 1032.4 |
| 20260902203055 | 75 | 209 | 0.0 | 0.0 | 0.00 | 0.00 | 0.00 | 33 | 1032.8 |
| 20260902201553 | 75 | 209 | 0.0 | 0.0 | 0.00 | 0.00 | 0.00 | 31 | 1032.9 |
| 20260902200049 | 75 | 209 | 0.0 | 0.0 | 0.00 | 0.00 | 0.00 | 33 | 1033.2 |
| 20260902194550 | 76 | 209 | 0.0 | 2.0 | 0.00 | 0.00 | 0.00 | 32 | 1033.3 |
| 20260902193049 | 75 | 209 | 0.0 | 3.0 | 0.00 | 0.00 | 0.00 | 32 | 1033.5 |
| 20260902191547 | 78 | 209 | 0.0 | 2.0 | 0.00 | 0.00 | 0.00 | 29 | 1033.6 |
| 20260902190043 | 78 | 209 | 0.0 | 5.0 | 0.00 | 0.00 | 0.00 | 28 | 1033.7 |
| 20260902184544 | 78 | 213 | 0.0 | 4.0 | 0.00 | 0.00 | 0.00 | 29 | 1034.0 |
| 20260902183043 | 76 | 212 | 0.0 | 4.0 | 0.00 | 0.00 | 0.00 | 30 | 1034.2 |
| 20260902181533 | 77 | 215 | 1.0 | 4.0 | 0.00 | 0.00 | 0.00 | 30 | 1034.5 |
| 20260902180034 | 77 | 212 | 0.0 | 4.0 | 0.00 | 0.00 | 0.00 | 29 | 1034.9 |
| 20260902174536 | 77 | 211 | 0.0 | 5.0 | 0.00 | 0.00 | 0.00 | 29 | 1035.1 |
| 20260902173034 | 74 | 201 | 0.0 | 6.0 | 0.00 | 0.00 | 0.00 | 33 | 1035.2 |
| 20260902171524 | 73 | 184 | 0.0 | 3.0 | 0.00 | 0.00 | 0.00 | 33 | 1035.3 |
| 20260902170016 | 72 | 184 | 0.0 | 4.0 | 0.00 | 0.00 | 0.00 | 36 | 1035.3 |
| 20260902164515 | 72 | 187 | 0.0 | 4.0 | 0.00 | 0.00 | 0.00 | 37 | 1035.6 |
| 20260902163013 | 71 | 183 | 0.0 | 4.0 | 0.00 | 0.00 | 0.00 | 38 | 1035.5 |
| 20260902161511 | 70 | 190 | 0.0 | 0.0 | 0.00 | 0.00 | 0.00 | 39 | 1035.5 |
| 20260902160010 | 69 | 190 | 0.0 | 2.0 | 0.00 | 0.00 | 0.00 | 42 | 1035.7 |
| 20260902154509 | 69 | 190 | 0.0 | 3.0 | 0.00 | 0.00 | 0.00 | 43 | 1035.9 |
| 20260902153003 | 68 | 190 | 0.0 | 3.0 | 0.00 | 0.00 | 0.00 | 46 | 1035.8 |
| 20260902151559 | 64 | 190 | 0.0 | 0.0 | 0.00 | 0.00 | 0.00 | 54 | 1035.9 |
| 20260902150053 | 61 | 190 | 0.0 | 0.0 | 0.00 | 0.00 | 0.00 | 61 | 1036.0 |
| 20260902144554 | 59 | 190 | 0.0 | 0.0 | 0.00 | 0.00 | 0.00 | 63 | 1036.0 |
| 20260902143045 | 56 | 190 | 0.0 | 0.0 | 0.00 | 0.00 | 0.00 | 69 | 1036.1 |
| 20260902141554 | 53 | 190 | 0.0 | 0.0 | 0.00 | 0.00 | 0.00 | 72 | 1036.2 |
| 20260902140040 | 52 | 190 | 0.0 | 0.0 | 0.00 | 0.00 | 0.00 | 74 | 1036.0 |
| 20260902134538 | 50 | 190 | 0.0 | 0.0 | 0.00 | 0.00 | 0.00 | 79 | 1036.0 |
| 20260902133050 | 48 | 190 | 0.0 | 0.0 | 0.00 | 0.00 | 0.00 | 79 | 1036.0 |
| 20260902131546 | 47 | 190 | 0.0 | 0.0 | 0.00 | 0.00 | 0.00 | 78 | 1036.0 |
| 20260902130035 | 47 | 190 | 0.0 | 0.0 | 0.00 | 0.00 | 0.00 | 78 | 1036.0 |
| 20260902124531 | 48 | 190 | 0.0 | 0.0 | 0.00 | 0.00 | 0.00 | 78 | 1035.9 |
| 20260902123039 | 48 | 190 | 0.0 | 0.0 | 0.00 | 0.00 | 0.00 | 78 | 1035.7 |
| 20260902121529 | 48 | 190 | 0.0 | 0.0 | 0.00 | 0.00 | 0.00 | 78 | 1035.5 |
| 20260902120033 | 48 | 190 | 0.0 | 0.0 | 0.00 | 0.00 | 0.00 | 79 | 1035.6 |
| 20260902114537 | 48 | 190 | 0.0 | 0.0 | 0.00 | 0.00 | 0.00 | 79 | 1035.4 |
| 20260902113025 | 49 | 190 | 0.0 | 0.0 | 0.00 | 0.00 | 0.00 | 79 | 1035.4 |
| 20260902111523 | 49 | 190 | 0.0 | 0.0 | 0.00 | 0.00 | 0.00 | 78 | 1035.4 |
| 20260902110022 | 49 | 190 | 0.0 | 0.0 | 0.00 | 0.00 | 0.00 | 77 | 1035.5 |
| 20260902104523 | 49 | 190 | 0.0 | 0.0 | 0.00 | 0.00 | 0.00 | 77 | 1035.5 |
| 20260902103022 | 50 | 190 | 0.0 | 0.0 | 0.00 | 0.00 | 0.00 | 76 | 1035.4 |
| 20260902101518 | 50 | 190 | 0.0 | 0.0 | 0.00 | 0.00 | 0.00 | 75 | 1035.3 |
| 20260902100017 | 50 | 190 | 0.0 | 0.0 | 0.00 | 0.00 | 0.00 | 75 | 1035.5 |
| 20260902094516 | 50 | 190 | 0.0 | 0.0 | 0.00 | 0.00 | 0.00 | 77 | 1035.4 |
| 20260902093015 | 50 | 190 | 0.0 | 0.0 | 0.00 | 0.00 | 0.00 | 77 | 1035.5 |
| 20260902091518 | 50 | 190 | 0.0 | 0.0 | 0.00 | 0.00 | 0.00 | 76 | 1035.6 |
| 20260902090013 | 50 | 190 | 0.0 | 0.0 | 0.00 | 0.00 | 0.00 | 76 | 1035.6 |
| 20260902084509 | 50 | 190 | 0.0 | 0.0 | 0.00 | 0.00 | 0.00 | 76 | 1035.5 |
| 20260902083008 | 50 | 190 | 0.0 | 0.0 | 0.00 | 0.00 | 0.00 | 75 | 1035.6 |
| 20260902081507 | 51 | 190 | 0.0 | 0.0 | 0.00 | 0.00 | 0.00 | 75 | 1035.5 |
| 20260902080006 | 51 | 190 | 0.0 | 0.0 | 0.00 | 0.00 | 0.00 | 75 | 1035.5 |
| 20260902074507 | 51 | 190 | 0.0 | 0.0 | 0.00 | 0.00 | 0.00 | 74 | 1035.5 |
| 20260902073003 | 52 | 190 | 0.0 | 0.0 | 0.00 | 0.00 | 0.00 | 74 | 1035.5 |
| 20260902071501 | 52 | 190 | 0.0 | 0.0 | 0.00 | 0.00 | 0.00 | 74 | 1035.5 |
| 20260902064559 | 52 | 190 | 0.0 | 0.0 | 0.00 | 0.02 | 0.00 | 74 | 1035.5 |
| 20260902063105 | 52 | 190 | 0.0 | 0.0 | 0.00 | 0.02 | 0.00 | 75 | 1035.3 |
| 20260902061616 | 52 | 190 | 0.0 | 0.0 | 0.00 | 0.02 | 0.00 | 76 | 1035.4 |
| 20260902054552 | 52 | 190 | 0.0 | 0.0 | 0.00 | 0.02 | 0.02 | 74 | 1035.5 |
| 20260902053051 | 53 | 190 | 0.0 | 0.0 | 0.00 | 0.02 | 0.02 | 74 | 1035.2 |
| 20260902051550 | 53 | 190 | 0.0 | 0.0 | 0.00 | 0.02 | 0.02 | 72 | 1035.4 |
| 20260902050050 | 54 | 190 | 0.0 | 0.0 | 0.00 | 0.02 | 0.02 | 73 | 1035.3 |
| 20260902044550 | 54 | 190 | 0.0 | 0.0 | 0.00 | 0.02 | 0.02 | 73 | 1035.3 |
| 20260902043048 | 55 | 190 | 0.0 | 0.0 | 0.00 | 0.02 | 0.02 | 72 | 1035.3 |
| 20260902041557 | 55 | 190 | 0.0 | 0.0 | 0.00 | 0.02 | 0.02 | 70 | 1035.4 |
| 20260902040050 | 56 | 190 | 0.0 | 0.0 | 0.00 | 0.02 | 0.02 | 69 | 1035.3 |
| 20260902034548 | 57 | 190 | 0.0 | 0.0 | 0.00 | 0.02 | 0.02 | 68 | 1035.3 |
| 20260902033047 | 58 | 190 | 0.0 | 0.0 | 0.00 | 0.02 | 0.02 | 67 | 1035.2 |
| 20260902031546 | 58 | 190 | 0.0 | 0.0 | 0.00 | 0.02 | 0.02 | 64 | 1035.0 |
| 20260902030045 | 59 | 190 | 0.0 | 0.0 | 0.00 | 0.02 | 0.02 | 63 | 1035.0 |
| 20260902024545 | 60 | 190 | 0.0 | 0.0 | 0.00 | 0.05 | 0.02 | 62 | 1034.7 |
| 20260902023044 | 61 | 190 | 0.0 | 0.0 | 0.00 | 0.05 | 0.02 | 60 | 1034.7 |
| 20260902021544 | 62 | 190 | 0.0 | 0.0 | 0.00 | 0.05 | 0.02 | 57 | 1034.3 |
| 20260902020053 | 63 | 190 | 0.0 | 0.0 | 0.00 | 0.05 | 0.02 | 55 | 1034.1 |
| 20260902014543 | 65 | 190 | 0.0 | 0.0 | 0.00 | 0.05 | 0.02 | 53 | 1034.0 |
| 20260902013042 | 66 | 190 | 0.0 | 0.0 | 0.00 | 0.05 | 0.02 | 52 | 1034.0 |
| 20260902011542 | 67 | 190 | 0.0 | 0.0 | 0.00 | 0.05 | 0.02 | 50 | 1034.1 |
| 20260902010041 | 67 | 190 | 0.0 | 0.0 | 0.00 | 0.05 | 0.02 | 48 | 1034.0 |
| 20260902004540 | 69 | 190 | 0.0 | 0.0 | 0.00 | 0.05 | 0.02 | 45 | 1033.9 |
| 20260902003040 | 70 | 190 | 0.0 | 0.0 | 0.00 | 0.05 | 0.02 | 45 | 1033.8 |
| 20260902001540 | 71 | 190 | 0.0 | 0.0 | 0.00 | 0.05 | 0.02 | 45 | 1033.8 |
| 20260902000041 | 71 | 190 | 0.0 | 0.0 | 0.00 | 0.05 | 0.02 | 43 | 1033.8 |
| 20260901234540 | 71 | 190 | 0.0 | 0.0 | 0.00 | 0.05 | 0.02 | 41 | 1033.7 |
| 20260901233040 | 72 | 190 | 0.0 | 2.0 | 0.00 | 0.05 | 0.02 | 41 | 1033.7 |
| 20260901231543 | 73 | 213 | 1.0 | 4.0 | 0.00 | 0.05 | 0.02 | 39 | 1033.7 |
| 20260901230046 | 73 | 213 | 0.0 | 0.0 | 0.00 | 0.05 | 0.02 | 40 | 1033.6 |
| 20260901224534 | 75 | 213 | 0.0 | 0.0 | 0.00 | 0.05 | 0.02 | 37 | 1033.5 |
| 20260901223041 | 75 | 213 | 0.0 | 0.0 | 0.00 | 0.05 | 0.02 | 38 | 1033.7 |
| 20260901221531 | 73 | 212 | 0.0 | 0.0 | 0.00 | 0.05 | 0.02 | 42 | 1033.8 |
| 20260901220041 | 72 | 212 | 0.0 | 4.0 | 0.00 | 0.05 | 0.02 | 39 | 1034.0 |
| 20260901214532 | 72 | 211 | 0.0 | 4.0 | 0.00 | 0.05 | 0.02 | 39 | 1034.0 |
| 20260901213027 | 73 | 211 | 0.0 | 4.0 | 0.00 | 0.05 | 0.02 | 38 | 1034.1 |